Weather History for Winona, MN

Change the Weather History Date:

Monday, December 31, 2012

  Actual Average Record
Temperature  
Mean Temperature 13 °F -  
Max Temperature 26 °F 23 °F 50 °F (2004)
Min Temperature 0 °F 6 °F -13 °F (1973)
Degree Days  
Heating Degree Days 52    
Moisture  
Dew Point 7 °F    
Average Humidity 69    
Maximum Humidity 85    
Minimum Humidity 53    
Precipitation  
Precipitation 0.00 in - - ()
Sea Level Pressure  
Sea Level Pressure 30.12 in    
Wind  
Wind Speed 10 mph (NW)    
Max Wind Speed 17 mph    
Max Gust Speed 22 mph    
Visibility 10 miles    
Events Snow    
Averages and records for this station are not official NWS values.
T = Trace of Precipitation, MM = Missing Value Source: NWS Daily Summary

Daily Weather History Graph

Daily Weather History Graph

Search for Another Location

Airport:

Trip Planner

Search our weather history database for the weather conditions in past years. The results will help you decide how hot, cold, wet, or windy it might be!

Date:

Astronomy

Dec. 31, 2012 Rise Set
Actual Time 7:41 AM CST 4:38 PM CST
Civil Twilight 7:08 AM CST 5:11 PM CST
Nautical Twilight 6:32 AM CST 5:48 PM CST
Astronomical Twilight 5:57 AM CST 6:23 PM CST
Moon 8:17 PM CST (12/31) 9:16 AM CST (12/31)
Length of Visible Light 10h 02m
Length of Day
8h 56m
Waning Gibbous, 90% of the Moon is Illuminated
Dec 31
Waning Gibbous
Jan 4
Last Quarter
Jan 11
New
Jan 18
First Quarter
Jan 26
Full

Hourly Weather History & Observations

Time (CST) Temp. Windchill Dew Point Humidity Pressure Visibility Wind Dir Wind Speed Gust Speed Precip Events Conditions
12:13 AM 26.6 °F 20.0 °F 19.4 °F 74% 29.95 in 10.0 mi WNW 5.8 mph - N/A   Clear
12:34 AM 24.8 °F 17.9 °F 17.6 °F 74% 29.95 in 10.0 mi West 5.8 mph - N/A   Clear
12:54 AM 23.0 °F 13.9 °F 17.6 °F 80% 29.96 in 10.0 mi WNW 8.1 mph - N/A   Clear
1:13 AM 23.0 °F 12.4 °F 17.6 °F 80% 29.96 in 10.0 mi WNW 10.4 mph - N/A   Clear
1:34 AM 21.2 °F 8.9 °F 15.8 °F 80% 29.97 in 10.0 mi WNW 12.7 mph - N/A   Clear
1:54 AM 21.2 °F 8.9 °F 14.0 °F 74% 29.97 in 10.0 mi WNW 12.7 mph - N/A   Clear
2:13 AM 21.2 °F 8.9 °F 14.0 °F 74% 29.98 in 10.0 mi WNW 12.7 mph 18.4 mph N/A   Clear
2:34 AM 21.2 °F 9.5 °F 14.0 °F 74% 29.99 in 10.0 mi WNW 11.5 mph - N/A   Clear
2:54 AM 19.4 °F 8.6 °F 14.0 °F 80% 30.01 in 10.0 mi NW 9.2 mph - N/A   Clear
3:13 AM 19.4 °F 7.2 °F 14.0 °F 80% 30.01 in 10.0 mi WNW 11.5 mph 16.1 mph N/A   Clear
3:34 AM 19.4 °F 7.2 °F 12.2 °F 74% 30.03 in 10.0 mi NW 11.5 mph 17.3 mph N/A   Scattered Clouds
3:54 AM 19.4 °F 7.2 °F 14.0 °F 80% 30.04 in 10.0 mi WNW 11.5 mph 17.3 mph N/A   Overcast
4:13 AM 19.4 °F 5.5 °F 14.0 °F 80% 30.03 in 10.0 mi NW 15.0 mph 21.9 mph N/A   Overcast
4:34 AM 19.4 °F 8.6 °F 14.0 °F 80% 30.04 in 10.0 mi WNW 9.2 mph 20.7 mph N/A   Overcast
4:54 AM 19.4 °F 6.0 °F 14.0 °F 80% 30.05 in 10.0 mi NW 13.8 mph - N/A   Overcast
5:14 AM 19.4 °F 6.0 °F 14.0 °F 80% 30.05 in 10.0 mi NW 13.8 mph 20.7 mph N/A   Overcast
5:34 AM 19.4 °F 6.6 °F 12.2 °F 74% 30.07 in 10.0 mi NW 12.7 mph 19.6 mph N/A   Overcast
5:53 AM 19.4 °F 7.2 °F 12.2 °F 74% 30.09 in 10.0 mi NNW 11.5 mph - N/A   Overcast
6:14 AM 17.6 °F 2.2 °F 10.4 °F 73% 30.09 in 10.0 mi NNW 17.3 mph 21.9 mph N/A   Overcast
6:34 AM 17.6 °F 3.7 °F 10.4 °F 73% 30.11 in 10.0 mi NW 13.8 mph 18.4 mph N/A Snow Light Snow
6:53 AM 17.6 °F 4.3 °F 12.2 °F 79% 30.11 in 10.0 mi NW 12.7 mph - N/A Snow Light Snow
7:14 AM 17.6 °F 3.7 °F 12.2 °F 79% 30.10 in 10.0 mi NW 13.8 mph 19.6 mph N/A   Overcast
7:33 AM 19.4 °F 7.2 °F 12.2 °F 74% 30.10 in 10.0 mi NW 11.5 mph 17.3 mph N/A Snow Light Snow
7:54 AM 19.4 °F 7.9 °F 12.2 °F 74% 30.11 in 10.0 mi NNW 10.4 mph - N/A   Overcast
8:14 AM 19.4 °F 7.9 °F 12.2 °F 74% 30.10 in 10.0 mi NNW 10.4 mph 16.1 mph N/A   Overcast
8:33 AM 19.4 °F 6.6 °F 10.4 °F 68% 30.11 in 10.0 mi NNW 12.7 mph - N/A   Overcast
8:54 AM 19.4 °F 6.6 °F 10.4 °F 68% 30.11 in 10.0 mi NNW 12.7 mph 17.3 mph N/A   Mostly Cloudy
9:14 AM 15.8 °F 1.4 °F 6.8 °F 68% 30.12 in 10.0 mi NW 13.8 mph 19.6 mph N/A   Scattered Clouds
9:33 AM 15.8 °F 3.4 °F 6.8 °F 68% 30.13 in 10.0 mi NNW 10.4 mph 17.3 mph N/A   Scattered Clouds
9:54 AM 15.8 °F 1.4 °F 5.0 °F 62% 30.14 in 10.0 mi NW 13.8 mph - N/A   Clear
10:14 AM 17.6 °F 2.7 °F 5.0 °F 58% 30.15 in 10.0 mi NW 16.1 mph 19.6 mph N/A   Clear
10:33 AM 17.6 °F 3.7 °F 5.0 °F 58% 30.14 in 10.0 mi NNW 13.8 mph - N/A   Clear
10:54 AM 17.6 °F 2.7 °F 5.0 °F 58% 30.15 in 10.0 mi NNW 16.1 mph 20.7 mph N/A   Clear
11:14 AM 17.6 °F 2.7 °F 5.0 °F 58% 30.14 in 10.0 mi NW 16.1 mph - N/A   Clear
11:33 AM 19.4 °F 6.0 °F 6.8 °F 58% 30.13 in 10.0 mi NW 13.8 mph - N/A   Clear
11:54 AM 19.4 °F 8.6 °F 6.8 °F 58% 30.13 in 10.0 mi NNW 9.2 mph - N/A   Clear
12:14 PM 19.4 °F 5.5 °F 5.0 °F 54% 30.12 in 10.0 mi NNW 15.0 mph - N/A   Clear
12:33 PM 19.4 °F 6.6 °F 5.0 °F 54% 30.13 in 10.0 mi NNW 12.7 mph - N/A   Clear
12:54 PM 19.4 °F 7.9 °F 5.0 °F 54% 30.12 in 10.0 mi NNW 10.4 mph - N/A   Clear
1:14 PM 19.4 °F 9.5 °F 5.0 °F 54% 30.13 in 10.0 mi NNW 8.1 mph - N/A   Clear
1:33 PM 19.4 °F 9.5 °F 5.0 °F 54% 30.12 in 10.0 mi NNW 8.1 mph - N/A   Clear
1:54 PM 19.4 °F 11.5 °F 5.0 °F 54% 30.12 in 10.0 mi North 5.8 mph - N/A   Clear
2:14 PM 19.4 °F 6.6 °F 5.0 °F 54% 30.13 in 10.0 mi NNW 12.7 mph - N/A   Clear
2:33 PM 19.4 °F 7.2 °F 5.0 °F 54% 30.13 in 10.0 mi NNW 11.5 mph - N/A   Clear
2:54 PM 19.4 °F 8.6 °F 5.0 °F 54% 30.15 in 10.0 mi NNW 9.2 mph - N/A   Clear
3:14 PM 17.6 °F 6.4 °F 5.0 °F 58% 30.15 in 10.0 mi NNW 9.2 mph - N/A   Clear
3:33 PM 17.6 °F 5.7 °F 3.2 °F 53% 30.15 in 10.0 mi NNW 10.4 mph - N/A   Clear
3:54 PM 15.8 °F 2.7 °F 3.2 °F 58% 30.16 in 10.0 mi NNW 11.5 mph - N/A   Clear
4:14 PM 14.0 °F -0.2 °F 3.2 °F 62% 30.16 in 10.0 mi NNW 12.7 mph 16.1 mph N/A   Clear
4:33 PM 14.0 °F 2.0 °F 3.2 °F 62% 30.17 in 10.0 mi NNW 9.2 mph - N/A   Clear
4:54 PM 14.0 °F 1.2 °F 3.2 °F 62% 30.16 in 10.0 mi NNW 10.4 mph - N/A   Clear
5:14 PM 10.4 °F -0.4 °F 1.4 °F 67% 30.16 in 10.0 mi NW 6.9 mph - N/A   Clear
5:33 PM 10.4 °F -1.5 °F 1.4 °F 67% 30.17 in 10.0 mi NNW 8.1 mph - N/A   Clear
5:54 PM 10.4 °F -2.4 °F 1.4 °F 67% 30.17 in 10.0 mi NW 9.2 mph - N/A   Clear
5:59 PM 10.4 °F -3.3 °F 1.4 °F 67% 30.17 in 10.0 mi NW 10.4 mph - N/A   Clear
6:33 PM 10.4 °F -0.4 °F 1.4 °F 67% 30.19 in 10.0 mi NW 6.9 mph - N/A   Clear
6:54 PM 8.6 °F -2.6 °F -0.4 °F 67% 30.19 in 10.0 mi NW 6.9 mph - N/A   Clear
7:14 PM 10.4 °F 2.2 °F 1.4 °F 67% 30.20 in 10.0 mi WNW 4.6 mph - N/A   Clear
7:33 PM 8.6 °F 0.1 °F -0.4 °F 67% 30.20 in 10.0 mi NW 4.6 mph - N/A   Clear
7:54 PM 5.0 °F - -0.4 °F 78% 30.21 in 10.0 mi Calm Calm - N/A   Clear
8:33 PM 8.6 °F -2.6 °F -0.4 °F 67% 30.21 in 10.0 mi NNW 6.9 mph - N/A   Clear
9:14 PM 5.0 °F - -2.2 °F 72% 30.22 in 10.0 mi Calm Calm - N/A   Clear
9:33 PM 5.0 °F - -0.4 °F 78% 30.22 in 10.0 mi Calm Calm - N/A   Clear
9:54 PM 3.2 °F - -2.2 °F 78% 30.23 in 10.0 mi Calm Calm - N/A   Clear
10:14 PM 1.4 °F - -4.0 °F 78% 30.24 in 10.0 mi Calm Calm - N/A   Clear
10:33 PM 1.4 °F - -4.0 °F 78% 30.24 in 10.0 mi Calm Calm - N/A   Clear
11:14 PM -0.4 °F - -4.0 °F 85% 30.27 in 10.0 mi Calm Calm - N/A   Clear
11:33 PM -0.4 °F - -4.0 °F 85% 30.26 in 10.0 mi Calm Calm - N/A   Clear
11:54 PM -0.4 °F -10.4 °F -7.6 °F 72% 30.26 in 10.0 mi WNW 4.6 mph - N/A   Clear